FW8685 Weather Reports


Display with metric or nautical units.
time (UTC)temp
F
wind
direction
speed
MPH
gust
MPH
rain 1hr
in
rain 24hr
in
rain mn
in
humidity
%
barometer
mb
20260508205521 73 279 6.0 13.0 0.00 0.00 0.00 50 1004.9
20260508205021 73 232 5.0 11.0 0.00 0.00 0.00 50 1005.3
20260508204539 73 256 7.0 14.0 0.00 0.00 0.00 52 1005.4
20260508204021 73 238 4.0 16.0 0.00 0.00 0.00 51 1005.1
20260508203522 73 257 10.0 16.0 0.00 0.00 0.00 51 1004.9
20260508203040 73 277 7.0 16.0 0.00 0.00 0.00 53 1005.0
20260508202523 73 282 8.0 13.0 0.00 0.00 0.00 52 1005.1
20260508202022 72 299 6.0 13.0 0.00 0.00 0.00 53 1004.9
20260508201540 72 280 7.0 12.0 0.00 0.00 0.00 53 1005.0
20260508201022 72 287 5.0 12.0 0.00 0.00 0.00 52 1005.2
20260508200522 72 274 7.0 13.0 0.00 0.00 0.00 51 1005.5
20260508200039 73 286 7.0 15.0 0.00 0.00 0.00 51 1005.4
20260508195521 73 301 8.0 15.0 0.00 0.00 0.00 50 1005.3
20260508195022 74 308 7.0 14.0 0.00 0.00 0.00 51 1005.3
20260508194546 74 336 8.0 14.0 0.00 0.00 0.00 51 1005.6
20260508194022 74 250 9.0 14.0 0.00 0.00 0.00 50 1005.5
20260508193521 74 286 5.0 14.0 0.00 0.00 0.00 50 1005.5
20260508193039 74 238 6.0 11.0 0.00 0.00 0.00 51 1005.6
20260508192522 74 244 4.0 11.0 0.00 0.00 0.00 51 1005.2
20260508192022 74 229 5.0 11.0 0.00 0.00 0.00 50 1005.3
20260508191545 75 257 5.0 10.0 0.00 0.00 0.00 48 1005.4
20260508191022 75 261 4.0 10.0 0.00 0.00 0.00 48 1005.3
20260508190522 75 257 4.0 17.0 0.00 0.00 0.00 49 1005.1
20260508190100 75 206 5.0 17.0 0.00 0.00 0.00 48 1005.1
20260508185522 76 237 8.0 17.0 0.00 0.00 0.00 45 1005.6
20260508185025 76 287 8.0 14.0 0.00 0.00 0.00 44 1005.5
20260508184541 77 238 8.0 16.0 0.00 0.00 0.00 44 1005.4
20260508184022 78 232 9.0 18.0 0.00 0.00 0.00 43 1005.9
20260508183521 78 257 11.0 19.0 0.00 0.00 0.00 42 1005.7
20260508183042 79 225 10.0 19.0 0.00 0.00 0.00 43 1005.8
20260508182521 79 249 8.0 20.0 0.00 0.00 0.00 43 1006.1
20260508182021 78 295 8.0 20.0 0.00 0.00 0.00 45 1006.1
20260508181544 77 242 12.0 20.0 0.00 0.00 0.00 44 1006.4
20260508181021 76 239 11.0 19.0 0.00 0.00 0.00 49 1006.4
20260508180524 75 272 11.0 19.0 0.00 0.00 0.00 48 1006.4
20260508180038 75 249 10.0 19.0 0.00 0.00 0.00 47 1006.5
20260508175522 75 269 11.0 21.0 0.00 0.00 0.00 46 1006.5
20260508175024 76 243 10.0 21.0 0.00 0.00 0.00 47 1006.7
20260508174541 76 269 11.0 25.0 0.00 0.00 0.00 47 1006.5
20260508174022 75 231 14.0 25.0 0.00 0.00 0.00 47 1006.6
20260508173521 75 246 10.0 19.0 0.00 0.00 0.00 48 1006.5
20260508173038 75 239 8.0 19.0 0.00 0.00 0.00 48 1006.5
20260508172525 75 231 9.0 18.0 0.00 0.00 0.00 48 1006.4
20260508172022 75 244 7.0 20.0 0.00 0.00 0.00 48 1006.5
20260508171544 76 254 8.0 20.0 0.00 0.00 0.00 47 1006.5
20260508171021 76 259 12.0 19.0 0.00 0.00 0.00 48 1006.5
20260508170521 76 223 11.0 19.0 0.00 0.00 0.00 47 1006.5
20260508170037 75 254 8.0 19.0 0.00 0.00 0.00 49 1006.5
20260508165521 75 221 10.0 19.0 0.00 0.00 0.00 50 1006.6
20260508165021 74 196 8.0 18.0 0.00 0.00 0.00 51 1006.6
20260508164537 73 220 7.0 14.0 0.00 0.00 0.00 50 1006.6
20260508164022 73 224 7.0 16.0 0.00 0.00 0.00 52 1006.8
20260508163522 73 247 10.0 20.0 0.00 0.00 0.00 51 1006.7
20260508163050 74 191 9.0 20.0 0.00 0.00 0.00 50 1006.9
20260508162525 74 204 9.0 20.0 0.00 0.00 0.00 50 1007.0
20260508162021 74 188 9.0 16.0 0.00 0.00 0.00 49 1007.0
20260508161552 75 187 7.0 16.0 0.00 0.00 0.00 51 1006.9
20260508161022 73 231 8.0 16.0 0.00 0.00 0.00 52 1006.9
20260508160525 73 225 10.0 17.0 0.00 0.00 0.00 52 1006.9
20260508160039 73 248 9.0 17.0 0.00 0.00 0.00 53 1007.1
20260508155522 73 178 6.0 16.0 0.00 0.00 0.00 54 1007.2
20260508155023 72 240 9.0 19.0 0.00 0.00 0.00 54 1007.2
20260508154538 72 237 8.0 19.0 0.00 0.00 0.00 55 1007.3
20260508154024 72 225 8.0 19.0 0.00 0.00 0.00 55 1007.4
20260508153522 71 223 8.0 18.0 0.00 0.00 0.00 55 1007.4
20260508153052 72 234 11.0 18.0 0.00 0.00 0.00 54 1007.4
20260508152521 72 209 8.0 18.0 0.00 0.00 0.00 56 1007.3
20260508152022 71 240 9.0 16.0 0.00 0.00 0.00 57 1007.3
20260508151538 70 234 8.0 16.0 0.00 0.00 0.00 59 1007.5
20260508151025 69 180 7.0 20.0 0.00 0.00 0.00 59 1007.6
20260508150522 69 232 10.0 20.0 0.00 0.00 0.00 58 1007.7
20260508150037 69 273 6.0 20.0 0.00 0.00 0.00 58 1007.7
20260508145521 69 242 11.0 20.0 0.00 0.00 0.00 58 1007.8
20260508145023 69 202 8.0 22.0 0.00 0.00 0.00 58 1007.8
20260508144537 69 267 11.0 22.0 0.00 0.00 0.00 58 1007.8
20260508144023 69 215 9.0 19.0 0.00 0.00 0.00 59 1007.8
20260508143524 68 263 7.0 22.0 0.00 0.00 0.00 60 1008.0
20260508143057 68 224 11.0 22.0 0.00 0.00 0.00 61 1008.1
20260508142522 67 204 10.0 19.0 0.00 0.00 0.00 61 1008.1
20260508142023 67 237 8.0 21.0 0.00 0.00 0.00 62 1008.0
20260508141540 67 224 9.0 23.0 0.00 0.00 0.00 63 1008.0
20260508141022 66 273 11.0 23.0 0.00 0.00 0.00 64 1008.0
20260508140522 65 225 8.0 22.0 0.00 0.00 0.00 66 1008.0
20260508140039 64 220 9.0 16.0 0.00 0.00 0.00 67 1008.2
20260508135523 64 257 7.0 15.0 0.00 0.00 0.00 67 1008.3
20260508135022 63 189 8.0 16.0 0.00 0.00 0.00 68 1008.1
20260508134539 63 245 6.0 16.0 0.00 0.00 0.00 69 1008.0
20260508134023 62 213 5.0 17.0 0.00 0.00 0.00 72 1008.0
20260508133522 61 207 9.0 17.0 0.00 0.00 0.00 72 1008.0
20260508133037 60 219 7.0 17.0 0.00 0.00 0.00 73 1008.0
20260508132522 59 200 8.0 17.0 0.00 0.00 0.00 75 1008.0
20260508132022 58 209 7.0 12.0 0.00 0.00 0.00 77 1007.9
20260508131537 57 204 6.0 13.0 0.00 0.00 0.00 79 1008.0
20260508131026 56 208 5.0 13.0 0.00 0.00 0.00 80 1008.1
20260508130522 55 221 5.0 10.0 0.00 0.00 0.00 80 1008.0
20260508130042 55 194 6.0 11.0 0.00 0.00 0.00 80 1007.8
20260508125522 54 188 5.0 11.0 0.00 0.00 0.00 81 1007.9
20260508125022 53 184 6.0 10.0 0.00 0.00 0.00 82 1007.9
20260508124537 53 180 5.0 10.0 0.00 0.00 0.00 83 1007.9
20260508124021 52 169 5.0 9.0 0.00 0.00 0.00 83 1008.0
20260508123521 52 174 5.0 8.0 0.00 0.00 0.00 83 1008.0
20260508123042 51 210 3.0 7.0 0.00 0.00 0.00 83 1008.0
20260508122547 51 186 4.0 8.0 0.00 0.00 0.00 83 1007.9
20260508122022 51 165 5.0 8.0 0.00 0.00 0.00 83 1007.8
20260508121537 50 173 4.0 7.0 0.00 0.00 0.00 83 1007.8
20260508121022 50 162 4.0 6.0 0.00 0.00 0.00 83 1007.8
20260508120524 50 191 4.0 7.0 0.00 0.00 0.00 82 1007.8
20260508120037 50 186 4.0 8.0 0.00 0.00 0.00 82 1007.8
20260508115522 50 180 5.0 8.0 0.00 0.00 0.00 82 1007.9
20260508115022 50 209 4.0 8.0 0.00 0.00 0.00 81 1007.9
20260508114537 50 178 4.0 10.0 0.00 0.00 0.00 81 1007.9
20260508114022 50 180 5.0 10.0 0.00 0.00 0.00 80 1007.9
20260508113522 50 181 5.0 8.0 0.00 0.00 0.00 79 1007.9
20260508113038 50 165 5.0 8.0 0.00 0.00 0.00 79 1007.8
20260508112524 50 190 5.0 8.0 0.00 0.00 0.00 78 1007.8
20260508112022 50 156 5.0 7.0 0.00 0.00 0.00 78 1007.8
20260508111541 50 161 5.0 7.0 0.00 0.00 0.00 78 1007.9
20260508111024 50 164 4.0 6.0 0.00 0.00 0.00 78 1007.9
20260508110521 50 164 4.0 6.0 0.00 0.00 0.00 78 1007.9
20260508110038 50 165 4.0 5.0 0.00 0.00 0.00 78 1007.9
20260508105521 50 175 3.0 6.0 0.00 0.00 0.00 78 1008.0
20260508105024 50 174 3.0 6.0 0.00 0.00 0.00 78 1008.0
20260508104538 50 180 4.0 7.0 0.00 0.00 0.00 78 1007.8
20260508104022 50 186 3.0 7.0 0.00 0.00 0.00 78 1007.7
20260508103522 50 190 4.0 8.0 0.00 0.00 0.00 78 1007.7
20260508103045 50 209 5.0 9.0 0.00 0.00 0.00 77 1007.8
20260508102523 50 210 4.0 9.0 0.00 0.00 0.00 77 1007.7
20260508102024 50 234 2.0 7.0 0.00 0.00 0.00 77 1007.8
20260508101536 50 178 4.0 7.0 0.00 0.00 0.00 76 1007.6
20260508101022 50 195 5.0 7.0 0.00 0.00 0.00 75 1007.5
20260508100523 50 175 4.0 6.0 0.00 0.00 0.00 75 1007.6
20260508100057 50 194 4.0 8.0 0.00 0.00 0.00 75 1007.6
20260508095527 50 178 4.0 8.0 0.00 0.00 0.00 74 1007.6
20260508095023 51 184 5.0 8.0 0.00 0.00 0.00 73 1007.6
20260508094542 51 191 5.0 8.0 0.00 0.00 0.00 72 1007.6
20260508094019 51 185 5.0 7.0 0.00 0.00 0.00 72 1007.6
20260508093523 51 165 4.0 6.0 0.00 0.00 0.00 72 1007.7
20260508093039 52 179 4.0 6.0 0.00 0.00 0.00 71 1007.8
20260508092520 52 171 3.0 7.0 0.00 0.00 0.00 71 1007.8
20260508092020 52 180 4.0 8.0 0.00 0.00 0.00 71 1007.6
20260508091552 52 190 4.0 8.0 0.00 0.00 0.00 70 1007.7
20260508091022 52 172 5.0 8.0 0.00 0.00 0.00 70 1007.6
20260508090521 52 177 5.0 9.0 0.00 0.00 0.00 70 1007.6
20260508090043 53 200 5.0 9.0 0.00 0.00 0.00 69 1007.6
20260508085520 53 182 4.0 8.0 0.00 0.00 0.00 69 1007.7
20260508085023 53 164 5.0 8.0 0.00 0.00 0.00 69 1007.7
20260508084539 53 215 5.0 7.0 0.00 0.00 0.00 69 1007.7
20260508084024 53 206 4.0 8.0 0.00 0.00 0.00 69 1007.6
20260508083523 53 217 4.0 10.0 0.00 0.00 0.00 69 1007.6
20260508083040 53 212 5.0 10.0 0.00 0.00 0.00 68 1007.7
20260508082521 53 217 5.0 9.0 0.00 0.00 0.00 68 1007.7
20260508082020 53 165 5.0 9.0 0.00 0.00 0.00 68 1007.7
20260508081553 53 202 5.0 8.0 0.00 0.00 0.00 67 1007.7
20260508081024 53 191 5.0 8.0 0.00 0.00 0.00 66 1007.6
20260508080522 54 181 4.0 7.0 0.00 0.00 0.00 66 1007.7
20260508080040 54 201 4.0 7.0 0.00 0.00 0.00 66 1007.7
20260508075521 54 203 3.0 8.0 0.00 0.00 0.00 66 1007.7
20260508075020 54 173 4.0 8.0 0.00 0.00 0.00 65 1007.9
20260508074538 54 191 4.0 8.0 0.00 0.00 0.00 65 1007.9
20260508074022 54 205 5.0 8.0 0.00 0.00 0.00 65 1007.9
20260508073523 54 241 5.0 8.0 0.00 0.00 0.00 65 1008.1
20260508073044 54 202 4.0 7.0 0.00 0.00 0.00 65 1008.0
20260508072520 55 192 4.0 8.0 0.00 0.00 0.00 65 1008.0
20260508072026 55 194 4.0 9.0 0.00 0.00 0.00 64 1008.0
20260508071539 55 198 4.0 9.0 0.00 0.00 0.00 64 1008.0
20260508071020 55 178 4.0 8.0 0.00 0.00 0.00 64 1008.0
20260508070523 55 180 4.0 9.0 0.00 0.00 0.00 64 1007.9
20260508070040 55 195 4.0 9.0 0.00 0.00 0.00 64 1008.0
20260508065520 55 171 5.0 11.0 0.00 0.00 0.00 64 1008.1
20260508065021 55 211 6.0 11.0 0.00 0.00 0.00 64 1008.0
20260508064540 55 188 6.0 11.0 0.00 0.00 0.00 64 1008.1
20260508064023 55 183 6.0 12.0 0.00 0.00 0.00 64 1008.0
20260508063523 55 184 7.0 12.0 0.00 0.00 0.00 65 1008.0
20260508063039 55 186 7.0 11.0 0.00 0.00 0.00 65 1008.0
20260508062522 55 196 6.0 11.0 0.00 0.00 0.00 64 1008.0
20260508062022 55 186 6.0 10.0 0.00 0.00 0.00 64 1008.0
20260508061538 55 163 6.0 12.0 0.00 0.00 0.00 64 1008.1
20260508061022 55 180 6.0 12.0 0.00 0.00 0.00 64 1008.1
20260508060524 55 192 5.0 10.0 0.00 0.00 0.00 63 1008.1
20260508060053 55 198 6.0 10.0 0.00 0.00 0.00 62 1008.1
20260508055522 55 196 6.0 10.0 0.00 0.00 0.00 62 1008.1
20260508055022 56 197 6.0 10.0 0.00 0.00 0.00 61 1008.1
20260508054610 56 166 6.0 10.0 0.00 0.00 0.00 61 1008.2
20260508054024 56 188 5.0 10.0 0.00 0.00 0.00 60 1008.3
20260508053522 56 171 6.0 10.0 0.00 0.00 0.00 60 1008.3
20260508053050 56 202 5.0 12.0 0.00 0.00 0.00 60 1008.3
20260508052522 56 188 7.0 12.0 0.00 0.00 0.00 60 1008.2
20260508052021 56 161 7.0 14.0 0.00 0.00 0.00 59 1008.4
20260508051541 57 185 8.0 14.0 0.00 0.00 0.00 59 1008.4
20260508051023 57 178 8.0 13.0 0.00 0.00 0.00 59 1008.3
20260508050523 57 200 8.0 13.0 0.00 0.00 0.00 58 1008.4
20260508050039 57 165 7.0 12.0 0.00 0.00 0.00 58 1008.3
20260508045522 57 190 7.0 12.0 0.00 0.00 0.00 58 1008.5
20260508045023 57 177 7.0 12.0 0.00 0.00 0.00 57 1008.5
20260508044537 58 200 7.0 14.0 0.00 0.00 0.00 57 1008.4
20260508044024 58 197 7.0 14.0 0.00 0.00 0.00 57 1008.6
20260508043522 58 172 7.0 16.0 0.00 0.00 0.00 57 1008.6
20260508043038 58 175 8.0 16.0 0.00 0.00 0.00 56 1008.6
20260508042522 58 167 8.0 14.0 0.00 0.00 0.00 56 1008.7
20260508042022 58 192 7.0 12.0 0.00 0.00 0.00 56 1008.7
20260508041545 59 161 7.0 13.0 0.00 0.00 0.00 55 1008.7
20260508041022 59 179 8.0 14.0 0.00 0.00 0.00 55 1008.7
20260508040522 59 186 7.0 15.0 0.00 0.00 0.00 54 1008.9
20260508040036 59 188 7.0 15.0 0.00 0.00 0.00 54 1008.9
20260508035522 59 206 8.0 14.0 0.00 0.00 0.00 54 1008.8
20260508035022 60 198 8.0 13.0 0.00 0.00 0.00 53 1009.0
20260508034547 60 178 7.0 12.0 0.00 0.00 0.00 52 1008.9
20260508034022 60 167 6.0 11.0 0.00 0.00 0.00 52 1009.0
20260508033522 61 186 7.0 14.0 0.00 0.00 0.00 51 1009.0
20260508033039 61 196 8.0 15.0 0.00 0.00 0.00 51 1008.9
20260508032523 61 179 8.0 17.0 0.00 0.00 0.00 51 1008.9
20260508032023 61 145 10.0 17.0 0.00 0.00 0.00 50 1009.0
20260508031537 62 162 9.0 15.0 0.00 0.00 0.00 50 1008.9
20260508031022 62 158 9.0 16.0 0.00 0.00 0.00 49 1008.9
20260508030522 62 176 9.0 16.0 0.00 0.00 0.00 48 1008.9
20260508030040 62 169 9.0 15.0 0.00 0.00 0.00 48 1009.0
20260508025523 63 200 8.0 15.0 0.00 0.00 0.00 47 1008.9
20260508025022 63 169 7.0 13.0 0.00 0.00 0.00 47 1009.0
20260508024544 63 179 8.0 14.0 0.00 0.00 0.00 46 1008.9
20260508024023 63 171 8.0 14.0 0.00 0.00 0.00 46 1008.8
20260508023523 64 209 8.0 16.0 0.00 0.00 0.00 45 1008.8
20260508023037 64 177 9.0 17.0 0.00 0.00 0.00 44 1008.7
20260508022526 64 190 9.0 17.0 0.00 0.00 0.00 44 1008.7
20260508022025 64 143 9.0 16.0 0.00 0.00 0.00 43 1008.6
20260508021537 64 187 10.0 19.0 0.00 0.00 0.00 43 1008.7
20260508021026 64 197 10.0 19.0 0.00 0.00 0.00 43 1008.5
20260508020522 64 158 10.0 19.0 0.00 0.00 0.00 42 1008.5
20260508020038 64 175 9.0 19.0 0.00 0.00 0.00 42 1008.4
20260508015522 64 180 7.0 12.0 0.00 0.00 0.00 42 1008.3
20260508015022 64 175 7.0 12.0 0.00 0.00 0.00 41 1008.2
20260508014539 65 161 7.0 13.0 0.00 0.00 0.00 41 1008.1
20260508014023 65 207 7.0 13.0 0.00 0.00 0.00 40 1008.1
20260508013522 66 169 7.0 12.0 0.00 0.00 0.00 40 1008.0
20260508013037 66 157 6.0 11.0 0.00 0.00 0.00 39 1008.0
20260508012525 67 162 6.0 11.0 0.00 0.00 0.00 38 1007.9
20260508012023 68 144 6.0 11.0 0.00 0.00 0.00 38 1008.0
20260508011532 68 189 7.0 12.0 0.00 0.00 0.00 37 1007.9
20260508011022 69 188 7.0 12.0 0.00 0.00 0.00 36 1007.9
20260508010523 70 180 6.0 13.0 0.00 0.00 0.00 36 1007.9
20260508010048 71 180 8.0 13.0 0.00 0.00 0.00 35 1007.8
20260508005521 71 184 7.0 12.0 0.00 0.00 0.00 34 1007.8
20260508005023 72 183 7.0 12.0 0.00 0.00 0.00 34 1007.8
20260508004537 73 190 6.0 12.0 0.00 0.00 0.00 33 1007.8
20260508004021 73 173 7.0 12.0 0.00 0.00 0.00 32 1007.8
20260508003520 74 182 6.0 13.0 0.00 0.00 0.00 32 1007.8
20260508003039 74 196 8.0 16.0 0.00 0.00 0.00 31 1007.9
20260508002522 74 205 9.0 17.0 0.00 0.00 0.00 31 1007.9
20260508002021 75 188 7.0 17.0 0.00 0.00 0.00 31 1007.8
20260508001537 75 188 8.0 18.0 0.00 0.00 0.00 31 1007.9
20260508001023 75 169 10.0 18.0 0.00 0.00 0.00 30 1007.9
20260508000529 75 197 7.0 15.0 0.00 0.00 0.00 29 1007.9
20260508000038 75 268 6.0 13.0 0.00 0.00 0.00 29 1007.9
20260507235523 75 178 6.0 15.0 0.00 0.00 0.00 30 1008.1
20260507235020 75 216 8.0 17.0 0.00 0.00 0.00 29 1008.0
20260507234542 76 206 10.0 19.0 0.00 0.00 0.00 29 1008.0
20260507234021 76 202 7.0 19.0 0.00 0.00 0.00 29 1007.9
20260507233520 76 201 10.0 19.0 0.00 0.00 0.00 28 1008.0
20260507233038 76 213 6.0 15.0 0.00 0.00 0.00 30 1008.0
20260507232520 76 240 7.0 15.0 0.00 0.00 0.00 29 1008.1
20260507232020 76 237 8.0 17.0 0.00 0.00 0.00 29 1008.2
20260507231543 76 217 6.0 17.0 0.00 0.00 0.00 29 1008.2
20260507231020 76 194 7.0 17.0 0.00 0.00 0.00 29 1008.2
20260507230522 76 242 7.0 15.0 0.00 0.00 0.00 30 1008.2
20260507230041 77 192 8.0 15.0 0.00 0.00 0.00 30 1008.4
20260507225524 76 225 6.0 18.0 0.00 0.00 0.00 32 1008.5
20260507225023 76 225 8.0 18.0 0.00 0.00 0.00 29 1008.5
20260507224536 76 211 8.0 18.0 0.00 0.00 0.00 30 1008.5
20260507224021 76 219 7.0 18.0 0.00 0.00 0.00 31 1008.7
20260507223523 76 244 8.0 17.0 0.00 0.00 0.00 31 1008.6
20260507223039 76 189 7.0 17.0 0.00 0.00 0.00 30 1008.7
20260507222521 76 241 10.0 23.0 0.00 0.00 0.00 29 1008.7
20260507222020 76 220 10.0 23.0 0.00 0.00 0.00 30 1008.7
20260507221538 76 255 11.0 23.0 0.00 0.00 0.00 29 1008.9
20260507221020 76 238 9.0 16.0 0.00 0.00 0.00 30 1009.0
20260507220520 76 236 8.0 14.0 0.00 0.00 0.00 33 1008.9
20260507220039 75 228 7.0 15.0 0.00 0.00 0.00 31 1009.0
20260507215521 76 254 9.0 15.0 0.00 0.00 0.00 30 1009.1
20260507215021 76 213 8.0 15.0 0.00 0.00 0.00 30 1009.3
20260507214545 76 209 9.0 15.0 0.00 0.00 0.00 30 1009.1
20260507214022 76 200 6.0 15.0 0.00 0.00 0.00 31 1009.1
20260507213523 75 202 9.0 18.0 0.00 0.00 0.00 32 1009.2
20260507213037 75 232 8.0 19.0 0.00 0.00 0.00 30 1009.2
20260507212524 76 248 9.0 19.0 0.00 0.00 0.00 31 1009.5
20260507212023 75 241 9.0 19.0 0.00 0.00 0.00 32 1009.4
20260507211542 75 191 8.0 18.0 0.00 0.00 0.00 32 1009.5
20260507211022 74 219 10.0 20.0 0.00 0.00 0.00 32 1009.6
20260507210523 75 217 8.0 20.0 0.00 0.00 0.00 32 1009.7
20260507210040 75 234 9.0 17.0 0.00 0.00 0.00 31 1009.9